Погода в Узынагаше

Поиск расширенной информации на нашем сайте:

Полезная информация:

Новости сайта



02.01.2020
Опубликован Долгосрочный прогноз погоды по городам России и ближнего зарубежья на январь 2020 года.
Карты: Прогноз на январь и февраль 2020 года, Сравнение прогнозируемой аномалии приземной температуры воздуха на январь 2020 года по разным моделям.




Погода в Узынагаше - сегодня

Время (UTC), дата Ветер
(°,м/с) 
Видим.   Явления Облачность Т
(°С)
Тd
(°С)
f(%) Тe
(°С)
Pmin
(гПа)
dP
(гПа)
Po
(мм)
O2
(г/м3)
Тmin Tmax R s Состояние
почвы
12 22.10.21 тихо ()   20000 м    10/10 600 м кучево-дожд. 
[Cb cap]
+2.2 +0.1 86 +2  1036.3  1.2  704  281           
15 22.10.21 тихо ()   н/о    10/10 600 м кучево-дожд. 
[Cb cap]
+1.4 -0.2 89 +1  1038.2  1.5  705  282    +2.8  0.0     
18 22.10.21 180 (Ю) н/о    8/8 1000 м кучево-дожд. 
[Cb cap]
-1 -2.2 92 1039.6  0.4  705  285    +2.8  0.0     
21 22.10.21 тихо ()   н/о    6/0 средняя, верхняя 
[Ac trans|Ci fib]
-2.5 -3.4 94 -3  1040.2  705  287           
00 23.10.21 тихо () {03}  н/о    3/0 верхняя 
[Ci fib]
-3.2 -4.2 93 -3  1040.7  0.2  705  288           
03 23.10.21 тихо ()   20000 м  гроза, пыльная буря  ясно 
-1 -2.3 91 -1  1040.3  0.4  705  285           
06 23.10.21 040 (СВ) 20000 м    ясно 
+7.8 -0.1 57 +8  1036.1  -0.8  705  276  -3.2         
09 23.10.21 030 (СВ) 20000 м    ясно 
+9.2 +0 53 +9  1033.4  -2  703  274           
12 23.10.21 тихо ()   20000 м    ясно 
+7.4 +1.2 65 +7  1034.1  0.1  703  276           
15 23.10.21 тихо ()   н/о    ясно 
+0 -1.1 92 1037.5  0.6  704  284    +9.8       
18 23.10.21 тихо ()   н/о    ясно 
-1.8 -2.9 92 -2  1037  -1.1  703  285    +9.8       
21 23.10.21 тихо ()   н/о    ясно 
-3.4 -4.5 92 -3  1036.2  -1.3  702  287           
00 24.10.21 тихо () {07}  20000 м    ясно 
-4.4 -5.6 91 -4  1036  -0.6  702  288           
03 24.10.21 тихо ()   20000 м    ясно 
-2.2 -4 87 -2  1034.6  -0.5  701  285           
06 24.10.21 тихо ()   20000 м    ясно 
+7.2 -0.2 59 +7  1029.1  -1.7  700  275  -4.7         
09 24.10.21 тихо ()   20000 м    ясно 
+10.6 +0.8 51 +11  1025.6  -2.1  698  271           
12 24.10.21 тихо ()   20000 м    ясно 
+8.6 +2.7 66 +9  1025.1  -1.1  698  272           
15 24.10.21 тихо ()   н/о    ясно 
+1.6 +0.3 91 +2  1026.7  -0.9  697  279    +10.9       
18 24.10.21 тихо ()   н/о    ясно 
-1 -2.2 92 -1  1025  -2.4  695  281    +10.9       
21 24.10.21 тихо ()   н/о    ясно 
-2.4 -3.6 91 -2  1023.3  -2  694  282           
00 25.10.21 тихо () {05}  н/о    ясно 
-3.1 -4.1 93 -3  1022.7  -0.8  693  283           
03 25.10.21 тихо ()   20000 м    ясно 
-0.6 -2.4 88 -1  1021.7  -0.1  693  280           
06 25.10.21 тихо ()   20000 м    ясно 
+9.8 +0 50 +10  1017.7  -0.2  693  269  -3.1         
09 25.10.21 310 (СЗ) 20000 м    ясно 
+14 +0.7 40 +15  1015.6  -0.6  692  265           
12 25.10.21 тихо ()   20000 м    ясно 
+11.6 +3.3 57 +12  1017  0.6  693  267           
Время (UTC), дата Ветер
(°,м/с) 
Видим.   Явления Облачность Т
(°С)
Тd
(°С)
f(%) Тe
(°С)
Pmin
(гПа)
dP
(гПа)
Po
(мм)
O2
(г/м3)
Тmin Tmax R s Состояние
почвы

Для получения пояснительной информации подведите курсор к названию столбца.

ПОГОДА в Узынагаше - архив

Всё, что Вы хотите узнать о погоде в Узынагаше - удобно и подробно!

Выберите нужную дату (начиная с 1 января 2019* года) и нажмите кнопку "Найти".
Будут отображены архивные сводки погоды по пункту Узынагаш, начиная с указанной даты.


Отображать данные в формате CSV (для использования в таблицах Excel)


Внимание! Наш архив погоды предназначен исключительно для личного некоммерческого использования в познавательных целях. Если Вам необходимы официальные справки о состоянии погоды (для производственных, юридических, коммерческих и т.п. целей), обращайтесь в органы Росгидромета.

*Примечание: данная дата относится к архиву по метеостанциям СССР (Россия, СНГ, Балтия).
Архив по метеостанциям Зарубежной Европы и Азии (кроме Китая) хранится 10 дней, по другим регионам земного шара (Китай, Африка, Америка, Австралия, Океания) - 1 день.

Узынагаш - район местоположения метеостанции


Название, широта, долгота, высота метеостанции:
Узынагаш 43.2°ш. 76.1°д. 992 м над ур. моря [Казахстан]

Дополнительная информация

В oтличие oт бoльшинства пoгoдных сайтoв мы публикуем пoдрoбную метеoинфoрмацию в детальнoм прoфессиoнальнoм фoрмате.

Характеристики температуры и влажнoсти вoздуха измеряются на высoте 2 м в тени вдали oт зданий и деревьев.
Скoрoсть ветра измеряется на высoте 10 м (на урoвне рoста челoвека скoрoсть ветра ниже в 1.5-2 раза). Если метеoстанция нахoдится в гoрoде или в лесу, тo скoрoсть ветра занижена на 2-4 м/с пo сравнению с oткрытым местoм. Скoрoсть ветра над акватoриями крупных рек и oзёр, а также на вершинах хoлмoв на 2-5 м/с выше, чем в oбычных услoвиях.
Атмoсфернoе давление в разных тoчках местнoсти мoжет значительнo oтличаться oт давления на метеoстанции, в зависимoсти oт услoвий рельефа (при пoдъёме на 10 м давление пoнижается примернo на 1 мм рт.ст.).